Home   Weather   Tiruchirappalli   Past weeks
Flag for India

Past Weather in Tiruchirappalli, Tamil Nadu, India — Yesterday and Last 2 Weeks

Now
75 °F

Fog.


Feels Like: 77 °F
Forecast: 92 / 65 °F
Wind: 7 mph from Northeast

Location: Tiruchchirapalli

Current Time: Jan 25, 2020 at 8:24:33 am

Latest Report: Jan 25, 2020 at 7:30 am


Visibility: 2 mi

Pressure: 29.98 "Hg

Humidity: 65%

Dew Point: 63 °F

Location of TiruchirappalliLocation

Past Weather in Tiruchirappalli — Graph

°F

Tiruchirappalli Temperature Yesterday

Maximum temperature yesterday: 90 °F (at 2:00 pm)
Minimum temperature yesterday: 72 °F (at 5:30 am)
Average temperature yesterday: 79 °F

High & Low Weather Summary for the Past Weeks

 TemperatureHumidityPressure
High90 °F (Jan 14, 3:30 pm)100% (Jan 24, 2:30 am)30.04 "Hg (Jan 24, 2:30 am)
Low66 °F (Jan 15, 5:30 am)41% (Jan 16, 2:30 pm)29.80 "Hg (Jan 13, 3:00 pm)
Average79 °F74%29.91 "Hg
* Reported Jan 10 6:30 am — Jan 25 7:00 am, Tiruchirappalli. Weather by CustomWeather, © 2020

Note: Actual official high and low records may vary slightly from our data, if they occured in-between our weather recording intervals... More about our weather records

Tiruchirappalli Weather History for the Previous 24 Hours

Scroll right to see more
 ConditionsComfort  
Time TempWeatherWind HumidityBarometerVisibility
7:00 am
Sat, Jan 25
73 °FFog.7 mph74%29.95 "Hg2 mi
6:30 am70 °FFog.7 mph88%29.95 "Hg2 mi
6:00 am70 °FFog.6 mph88%29.92 "Hg2 mi
5:30 am70 °FFog.7 mph88%29.92 "Hg2 mi
5:00 am72 °FFog.6 mph88%29.92 "Hg2 mi
4:30 am72 °FFog.7 mph88%29.89 "Hg2 mi
4:00 am72 °FFog.6 mph88%29.92 "Hg2 mi
3:30 am72 °FFog.6 mph88%29.92 "Hg2 mi
3:00 am72 °FFog.6 mph88%29.92 "Hg2 mi
2:00 am73 °FFog.7 mph94%29.92 "Hg2 mi
1:30 am73 °FFog.7 mph89%29.95 "Hg2 mi
1:00 am73 °FFog.7 mph89%29.95 "Hg2 mi
12:30 am75 °FFog.6 mph89%29.98 "Hg2 mi
12:00 am75 °FFog.7 mph83%29.98 "Hg3 mi
11:30 pm
Fri, Jan 24
75 °FFog.3 mph83%29.98 "Hg3 mi
11:00 pm77 °FPassing clouds.5 mph83%29.95 "Hg3 mi
10:30 pm77 °FPassing clouds.7 mph83%29.95 "Hg4 mi
10:00 pm79 °FPassing clouds.8 mph79%29.95 "Hg4 mi
9:30 pm79 °FPassing clouds.9 mph79%29.95 "Hg4 mi
9:00 pm79 °FPassing clouds.7 mph74%29.95 "Hg4 mi
8:30 pm79 °FPassing clouds.7 mph74%29.95 "Hg4 mi
8:00 pm79 °FPassing clouds.9 mph70%29.92 "Hg4 mi
7:30 pm81 °FPassing clouds.9 mph66%29.92 "Hg4 mi
7:00 pm81 °FPassing clouds.7 mph66%29.89 "Hg4 mi
6:30 pm82 °FPassing clouds.9 mph58%29.89 "Hg4 mi
6:00 pm84 °FPassing clouds.9 mph58%29.86 "Hg4 mi
5:30 pm86 °FPassing clouds.12 mph55%29.86 "Hg4 mi
5:00 pm88 °FPassing clouds.10 mph55%29.86 "Hg4 mi
4:30 pm88 °FPassing clouds.12 mph55%29.86 "Hg4 mi
4:00 pm90 °FPassing clouds.9 mph52%29.86 "Hg4 mi
3:30 pm90 °FPassing clouds.9 mph52%29.86 "Hg4 mi
3:00 pm90 °FPassing clouds.12 mph52%29.86 "Hg4 mi
2:30 pm90 °FHaze.10 mph52%29.89 "Hg3 mi
2:00 pm90 °FScattered clouds.9 mph52%29.89 "Hg3 mi
1:30 pm88 °FScattered clouds.12 mph52%29.89 "Hg3 mi
1:00 pm88 °FScattered clouds.12 mph52%29.92 "Hg3 mi
12:30 pm88 °FHaze.14 mph52%29.95 "Hg3 mi
12:00 pm86 °FHaze.12 mph55%29.95 "Hg2 mi
11:30 am84 °FHaze.14 mph58%29.98 "Hg2 mi
11:00 am81 °FHaze.16 mph70%29.98 "Hg2 mi
10:30 am79 °FHaze.14 mph74%29.98 "Hg2 mi
10:00 am77 °FFog.14 mph79%29.98 "Hg2 mi
9:30 am77 °FFog.14 mph79%29.98 "Hg1 mi
9:00 am75 °FFog.14 mph83%29.98 "Hg1 mi
8:30 am75 °FFog.9 mph83%29.98 "Hg1 mi
8:00 am75 °FFog.6 mph83%29.95 "Hg1 mi
Weather by CustomWeather, © 2020

See weather overview

Advertising